Meteo pe oră la Dzialy

Astăzi, 1 Octombrie, Joi

Timp Temperatura Precipitaţii Vânt Presiune Umiditate
00:00 +13°C° 0 mm 4 m/s 756 mmHg 82%
01:00 +13°C° 0 mm 3 m/s 756 mmHg 81%
02:00 +13°C° 0 mm 3 m/s 756 mmHg 83%
03:00 +12°C° 0 mm 4 m/s 755 mmHg 85%
04:00 +12°C° 0 mm 4 m/s 755 mmHg 86%
05:00 +12°C° 0 mm 4 m/s 755 mmHg 87%
06:00 +12°C° 0 mm 5 m/s 755 mmHg 88%
07:00 +12°C° 0 mm 5 m/s 755 mmHg 89%
08:00 +13°C° 0 mm 4 m/s 754 mmHg 81%
09:00 +14°C° 0 mm 4 m/s 754 mmHg 74%
10:00 +17°C° 0 mm 4 m/s 754 mmHg 66%
11:00 +18°C° 0 mm 4 m/s 754 mmHg 63%
12:00 +17°C° 0 mm 5 m/s 753 mmHg 60%
13:00 +19°C° 0 mm 5 m/s 753 mmHg 57%
14:00 +19°C° 0 mm 5 m/s 753 mmHg 58%
15:00 +17°C° 0 mm 5 m/s 753 mmHg 59%
16:00 +17°C° 0 mm 5 m/s 753 mmHg 61%
17:00 +16°C° 0 mm 5 m/s 753 mmHg 66%
18:00 +15°C° 0 mm 6 m/s 753 mmHg 72%
19:00 +14°C° 0 mm 6 m/s 753 mmHg 77%
20:00 +14°C° 0 mm 6 m/s 753 mmHg 79%
21:00 +13°C° 0 mm 6 m/s 753 mmHg 82%
22:00 +12°C° 0 mm 7 m/s 753 mmHg 84%
23:00 +12°C° 0 mm 7 m/s 753 mmHg 85%

Mâine, 2 Octombrie, Vineri

Timp Temperatura Precipitaţii Vânt Presiune Umiditate
00:00 +11°C° 0 mm 7 m/s 753 mmHg 86%
01:00 +11°C° 0 mm 7 m/s 754 mmHg 87%
02:00 +11°C° 0 mm 6 m/s 753 mmHg 88%
03:00 +11°C° 0 mm 6 m/s 753 mmHg 89%
04:00 +11°C° 0 mm 6 m/s 753 mmHg 90%
05:00 +12°C° 0 mm 7 m/s 753 mmHg 87%
06:00 +12°C° 0 mm 7 m/s 753 mmHg 84%
07:00 +12°C° 0 mm 7 m/s 753 mmHg 81%
08:00 +14°C° 0 mm 7 m/s 753 mmHg 78%
09:00 +15°C° 0 mm 7 m/s 753 mmHg 75%
10:00 +15°C° 0 mm 7 m/s 753 mmHg 72%
11:00 +16°C° 0 mm 7 m/s 753 mmHg 71%
12:00 +16°C° 0 mm 7 m/s 753 mmHg 71%
13:00 +16°C° 0 mm 7 m/s 753 mmHg 70%
14:00 +16°C° 0.1 mm 7 m/s 753 mmHg 73%
15:00 +15°C° 0.1 mm 6 m/s 753 mmHg 76%
16:00 +15°C° 0.1 mm 6 m/s 753 mmHg 79%
17:00 +14°C° 0 mm 6 m/s 753 mmHg 81%
18:00 +14°C° 0 mm 6 m/s 754 mmHg 83%
19:00 +14°C° 0 mm 7 m/s 754 mmHg 85%
20:00 +14°C° 0 mm 6 m/s 754 mmHg 85%
21:00 +14°C° 0 mm 6 m/s 754 mmHg 86%
22:00 +14°C° 0 mm 6 m/s 754 mmHg 86%
23:00 +13°C° 0 mm 6 m/s 753 mmHg 89%

Poimâine, 3 Octombrie, Sâmbătă

Timp Temperatura Precipitaţii Vânt Presiune Umiditate
00:00 +13°C° 0 mm 6 m/s 753 mmHg 91%
01:00 +11°C° 0 mm 6 m/s 753 mmHg 94%
02:00 +11°C° 0 mm 6 m/s 753 mmHg 93%
03:00 +11°C° 0 mm 7 m/s 753 mmHg 93%
04:00 +11°C° 0 mm 7 m/s 752 mmHg 92%
05:00 +12°C° 0 mm 7 m/s 752 mmHg 91%
06:00 +12°C° 0 mm 8 m/s 752 mmHg 89%
07:00 +12°C° 0 mm 8 m/s 752 mmHg 88%
08:00 +15°C° 0 mm 8 m/s 751 mmHg 83%
09:00 +16°C° 0 mm 9 m/s 751 mmHg 78%
10:00 +17°C° 0 mm 9 m/s 751 mmHg 73%
11:00 +18°C° 0 mm 9 m/s 750 mmHg 70%
12:00 +19°C° 0 mm 9 m/s 750 mmHg 68%
13:00 +21°C° 0 mm 9 m/s 749 mmHg 65%
14:00 +21°C° 0 mm 8 m/s 749 mmHg 65%
15:00 +21°C° 0 mm 7 m/s 749 mmHg 64%
16:00 +21°C° 0 mm 6 m/s 749 mmHg 63%
17:00 +21°C° 0 mm 7 m/s 748 mmHg 64%
18:00 +20°C° 0 mm 7 m/s 748 mmHg 64%
19:00 +20°C° 0 mm 8 m/s 748 mmHg 64%
20:00 +20°C° 0 mm 8 m/s 748 mmHg 64%
21:00 +20°C° 0 mm 8 m/s 748 mmHg 64%
22:00 +20°C° 0 mm 8 m/s 748 mmHg 65%
23:00 +20°C° 0 mm 8 m/s 748 mmHg 64%

4 Octombrie, Duminică

Timp Temperatura Precipitaţii Vânt Presiune Umiditate
00:00 +20°C° 0 mm 8 m/s 748 mmHg 64%
01:00 +20°C° 0 mm 8 m/s 748 mmHg 63%
02:00 +19°C° 0 mm 9 m/s 748 mmHg 63%
03:00 +19°C° 0 mm 9 m/s 747 mmHg 62%
04:00 +19°C° 0 mm 9 m/s 747 mmHg 62%
05:00 +19°C° 0 mm 9 m/s 747 mmHg 64%
06:00 +18°C° 0 mm 9 m/s 747 mmHg 66%
07:00 +18°C° 0 mm 8 m/s 747 mmHg 68%
08:00 +20°C° 0 mm 8 m/s 748 mmHg 67%
09:00 +20°C° 0 mm 8 m/s 748 mmHg 66%
10:00 +21°C° 0 mm 8 m/s 749 mmHg 65%
11:00 +20°C° 0.7 mm 7 m/s 749 mmHg 70%
12:00 +18°C° 0.7 mm 7 m/s 749 mmHg 75%
13:00 +18°C° 0.7 mm 7 m/s 750 mmHg 80%
14:00 +19°C° 0.8 mm 5 m/s 750 mmHg 78%
15:00 +19°C° 0.8 mm 4 m/s 751 mmHg 76%
16:00 +20°C° 0.8 mm 3 m/s 751 mmHg 74%
17:00 +19°C° 0 mm 3 m/s 752 mmHg 76%
18:00 +18°C° 0 mm 4 m/s 752 mmHg 77%
19:00 +15°C° 0 mm 4 m/s 753 mmHg 78%
20:00 +15°C° 0 mm 4 m/s 753 mmHg 80%
21:00 +14°C° 0 mm 4 m/s 753 mmHg 82%
22:00 +14°C° 0 mm 3 m/s 753 mmHg 83%
23:00 +14°C° 0 mm 3 m/s 753 mmHg 83%

5 Octombrie, Luni

Timp Temperatura Precipitaţii Vânt Presiune Umiditate
00:00 +14°C° 0 mm 3 m/s 753 mmHg 82%
01:00 +13°C° 0 mm 3 m/s 753 mmHg 82%
02:00 +13°C° 0 mm 3 m/s 753 mmHg 82%
03:00 +13°C° 0 mm 3 m/s 753 mmHg 82%
04:00 +13°C° 0 mm 4 m/s 753 mmHg 83%
05:00 +13°C° 0 mm 4 m/s 752 mmHg 86%
06:00 +13°C° 0 mm 4 m/s 752 mmHg 89%
07:00 +14°C° 0 mm 5 m/s 752 mmHg 92%
08:00 +15°C° 0 mm 5 m/s 752 mmHg 89%
09:00 +16°C° 0 mm 5 m/s 751 mmHg 86%
10:00 +18°C° 0 mm 4 m/s 751 mmHg 84%
11:00 +19°C° 0.6 mm 5 m/s 751 mmHg 80%
12:00 +20°C° 0.6 mm 5 m/s 751 mmHg 76%
13:00 +21°C° 0.6 mm 6 m/s 751 mmHg 73%
14:00 +21°C° 0.2 mm 5 m/s 750 mmHg 70%
15:00 +21°C° 0.2 mm 5 m/s 750 mmHg 68%
16:00 +21°C° 0.2 mm 4 m/s 750 mmHg 66%
17:00 +20°C° 0 mm 5 m/s 750 mmHg 68%
18:00 +19°C° 0 mm 5 m/s 750 mmHg 70%
19:00 +17°C° 0 mm 5 m/s 751 mmHg 72%
20:00 +16°C° 0 mm 5 m/s 751 mmHg 73%
21:00 +16°C° 0 mm 5 m/s 751 mmHg 74%
22:00 +16°C° 0 mm 6 m/s 752 mmHg 75%
23:00 +15°C° 0 mm 6 m/s 752 mmHg 77%

6 Octombrie, Marţi

Timp Temperatura Precipitaţii Vânt Presiune Umiditate
00:00 +14°C° 0 mm 6 m/s 752 mmHg 79%
01:00 +14°C° 0 mm 6 m/s 753 mmHg 82%
02:00 +13°C° 0 mm 6 m/s 753 mmHg 84%
03:00 +11°C° 0 mm 6 m/s 754 mmHg 87%
04:00 +12°C° 0 mm 5 m/s 754 mmHg 89%
05:00 +12°C° 0 mm 5 m/s 755 mmHg 88%
06:00 +12°C° 0 mm 5 m/s 755 mmHg 87%
07:00 +12°C° 0 mm 5 m/s 755 mmHg 85%
08:00 +13°C° 0 mm 5 m/s 755 mmHg 77%
09:00 +15°C° 0 mm 4 m/s 756 mmHg 69%
10:00 +17°C° 0 mm 4 m/s 756 mmHg 60%
11:00 +18°C° 0 mm 4 m/s 756 mmHg 58%
12:00 +19°C° 0 mm 4 m/s 755 mmHg 55%
13:00 +20°C° 0 mm 3 m/s 755 mmHg 53%
14:00 +19°C° 0 mm 3 m/s 755 mmHg 57%
15:00 +19°C° 0 mm 2 m/s 755 mmHg 61%
16:00 +18°C° 0 mm 2 m/s 755 mmHg 65%
17:00 +18°C° 0 mm 2 m/s 754 mmHg 67%
18:00 +17°C° 0 mm 2 m/s 754 mmHg 70%
19:00 +17°C° 0 mm 2 m/s 754 mmHg 72%
20:00 +16°C° 1.6 mm 2 m/s 753 mmHg 80%
21:00 +16°C° 1.6 mm 2 m/s 753 mmHg 87%
22:00 +15°C° 1.6 mm 2 m/s 752 mmHg 95%
23:00 +14°C° 2 mm 3 m/s 752 mmHg 93%
Arată mai mult

We Need Your Consent

Meteoprog and our Service Providers may store and access personal data such as cookies, device identifiers or other similar technologies on your device and process such data to personalise content and ads, as well as provide social media features and to analyse the traffic.

  • Store and/or access information on your device

    Cookies, device identifiers or other information can be stored or accessed on your device for the purposes indicated above.

  • Personalised ads and content, ad and content measurement, audience insights, and products development

    Ads and content can be personalised based on a profile. More data can be added to better personalise ads and content. Ad and content performance can be measured. Insights about the audience who saw the ads and content can be derived. Such data can be used to develop or improve user’s experience, systems and software.

By clicking ‘I Agree’ you will allow the use of indicated cookies, device identifiers, web beacons or other similar technologies. Your settings can be changed in the browser on your device.

For certain purposes, legitimate interests may be relied on, rather than consent. You can read more about this in our Privacy and Cookie Policy.